"Pseudo-MPEC" for P22ooQq

Created 2026 Jul 29 15:35:11 UT using Find_Orb

Click here for an explanation of pseudo-MPECs

 
 Astrometry: 
     P22ooQq*0C2026 07 16.58502401 54 56.427+09 39 54.76   ~7NF5 21.40wXNEOCPF52
     P22ooQq 0C2026 07 16.59009001 54 57.037+09 40 10.94   ~7NF5 21.06wXNEOCPF52
     P22ooQq 0C2026 07 16.59516801 54 57.636+09 40 27.15   ~7NF5 21.17wXNEOCPF52
     P22ooQq 0C2026 07 16.60028401 54 58.251+09 40 43.43   ~7NF5 21.34wXNEOCPF52
     P22ooQq 3C2026 07 17.51993501 56 51.977+10 29 44.70   ~7NF5 22.00GVNEOCPT14
     P22ooQq 3C2026 07 17.52090501 56 52.105+10 29 47.75   ~7NF5 22.22GVNEOCPT14
     P22ooQq 3C2026 07 17.52187401 56 52.219+10 29 50.84   ~7NF5 22.04GVNEOCPT14
     P22ooQq 3C2026 07 19.57082802 01 07.813+12 21 21.52   ~7NF5 21.64GVNEOCPT14
     P22ooQq 3C2026 07 19.57180302 01 07.931+12 21 24.81   ~7NF5 21.58GVNEOCPT14
     P22ooQq 3C2026 07 19.57278502 01 08.054+12 21 28.04   ~7NF5 21.65GVNEOCPT14

Station data:
(F52) Pan-STARRS 2, Haleakala  (N20.707382 W156.255910)  US/Hawaii.
   Observers J. Herman, T. Lowe, P. Minguez, A. Schultz, I. Smith. Measurers
   K. Chambers, T. de Boer, J. Fairlamb, H. Gao, M. Huber, C.-C. Lin, E.
   Magnier, Y. Ramanjooloo, R. Wainscoat, R. Weryk. 1.8-m Ritchey-Chrétien +
   CCD.
(T14) Mauna Kea-UH/Tholen NEO Follow-Up (CFHT)  (N19.825252 W155.468876)
   US/Hawaii.  Observer R. Weryk. 3.6-m Canada-France-Hawaii Telescope.

Orbital elements:  P22ooQq
   Perihelion 2026 Aug 23.025842 +/- 1.77 TT =  0:37:12.7 (JD 2461275.525842)
Epoch 2026 Jul 19.0 TT = JDT 2461240.5   Earth MOID: 0.3631   Ju: 0.9620
M 358.309044033 +/- 2.2             Ma: 0.0223   Sa: 0.6847      AutoNEOCP
n   0.048277382 +/- 0.0607          Peri.   29.405748 +/- 1.3
a   7.469764384 +/- 6.27            Node   345.861299 +/- 1.3
e   0.82458580 +/- 0.143            Incl.   41.763226 +/- 0.6
P  20.41552                H 19.08  G  0.15   U 10.9
q 1.310302675 +/- 0.0278    Q 13.62922609 +/- 12.5        (J2000 ecliptic)
From 10 observations 2026 July 16-19; mean residual 0".06
Residuals in arcseconds: 
260716 F52  .12+  .07-    260717 T14  .07-  .07+    260719 T14  .02-  .03+    
260716 F52  .10+  .01-    260717 T14  .07+  .01-    260719 T14  .01+  .00     
260716 F52  .09-  .04+    260717 T14  .00   .05-    
260716 F52  .11-  .03+    260719 T14  .01+  .03-    

Ephemerides (geocentric):
Date (UTC) HH   RA             Dec           delta  r     elong  mag " sig PA
---- --------  ------------   ------------  ------ ------ -----  --- --------
2026 07 29 16  02 23 17.829   +22 14 39.08  .97660 1.3516  85.4 21.5 17.7  24
2026 07 29 17  02 23 23.623   +22 17 14.35  .97630 1.3514  85.4 21.5 17.9  24
2026 07 29 18  02 23 29.419   +22 19 49.68  .97601 1.3513  85.4 21.5 18.1  24
2026 07 29 19  02 23 35.219   +22 22 25.07  .97572 1.3512  85.5 21.5 18.3  24
2026 07 29 20  02 23 41.022   +22 25 00.53  .97543 1.3510  85.5 21.5 18.5  24
2026 07 29 21  02 23 46.828   +22 27 36.04  .97514 1.3509  85.5 21.5 18.7  25
2026 07 29 22  02 23 52.636   +22 30 11.61  .97484 1.3507  85.5 21.5 18.9  25
2026 07 29 23  02 23 58.448   +22 32 47.25  .97455 1.3506  85.5 21.5 19.1  25
2026 07 30 00  02 24 04.263   +22 35 22.95  .97426 1.3505  85.5 21.5 19.4  25
2026 07 30 01  02 24 10.081   +22 37 58.70  .97397 1.3503  85.5 21.5 19.6  25
2026 07 30 02  02 24 15.901   +22 40 34.52  .97369 1.3502  85.5 21.5 19.8  25
2026 07 30 03  02 24 21.725   +22 43 10.40  .97340 1.3501  85.5 21.5 20.0  25
2026 07 30 04  02 24 27.552   +22 45 46.34  .97311 1.3499  85.5 21.5 20.2  25
2026 07 30 05  02 24 33.382   +22 48 22.34  .97282 1.3498  85.5 21.5 20.4  25
2026 07 30 06  02 24 39.214   +22 50 58.39  .97253 1.3497  85.5 21.5 20.7  25
2026 07 30 07  02 24 45.050   +22 53 34.51  .97225 1.3495  85.5 21.5 20.9  25
2026 07 30 08  02 24 50.889   +22 56 10.69  .97196 1.3494  85.5 21.5 21.1  25
2026 07 30 09  02 24 56.731   +22 58 46.93  .97168 1.3492  85.5 21.5 21.3  25
2026 07 30 10  02 25 02.576   +23 01 23.23  .97139 1.3491  85.5 21.5 21.6  25
2026 07 30 11  02 25 08.424   +23 03 59.58  .97111 1.3490  85.5 21.5 21.8  25
2026 07 30 12  02 25 14.275   +23 06 36.00  .97082 1.3488  85.5 21.5 22.0  25
2026 07 30 13  02 25 20.130   +23 09 12.48  .97054 1.3487  85.5 21.5 22.3  25
2026 07 30 14  02 25 25.987   +23 11 49.01  .97026 1.3486  85.5 21.5 22.5  25
2026 07 30 15  02 25 31.847   +23 14 25.61  .96997 1.3484  85.5 21.5 22.8  25
2026 07 30 16  02 25 37.711   +23 17 02.26  .96969 1.3483  85.5 21.5 23.0  25
2026 07 30 17  02 25 43.578   +23 19 38.97  .96941 1.3482  85.6 21.5 23.2  25
2026 07 30 18  02 25 49.447   +23 22 15.74  .96913 1.3480  85.6 21.5 23.5  26
2026 07 30 19  02 25 55.320   +23 24 52.57  .96885 1.3479  85.6 21.5 23.7  26
2026 07 30 20  02 26 01.196   +23 27 29.46  .96857 1.3478  85.6 21.5 24.0  26
2026 07 30 21  02 26 07.075   +23 30 06.40  .96829 1.3477  85.6 21.5 24.2  26
2026 07 30 22  02 26 12.958   +23 32 43.41  .96801 1.3475  85.6 21.5 24.5  26
2026 07 30 23  02 26 18.843   +23 35 20.47  .96773 1.3474  85.6 21.5 24.7  26
2026 07 31 00  02 26 24.732   +23 37 57.59  .96745 1.3473  85.6 21.5 25.0  26
2026 07 31 01  02 26 30.623   +23 40 34.77  .96717 1.3471  85.6 21.5 25.2  26
2026 07 31 02  02 26 36.518   +23 43 12.00  .96689 1.3470  85.6 21.5 25.5  26
2026 07 31 03  02 26 42.416   +23 45 49.29  .96662 1.3469  85.6 21.5 25.7  26
2026 07 31 04  02 26 48.318   +23 48 26.64  .96634 1.3467  85.6 21.5 26.0  26
2026 07 31 05  02 26 54.222   +23 51 04.05  .96606 1.3466  85.6 21.5 26.3  26
2026 07 31 06  02 27 00.130   +23 53 41.52  .96579 1.3465  85.6 21.5 26.5  26
2026 07 31 07  02 27 06.040   +23 56 19.04  .96551 1.3463  85.6 21.5 26.8  26
2026 07 31 08  02 27 11.954   +23 58 56.61  .96524 1.3462  85.6 21.5 27.1  26
2026 07 31 09  02 27 17.872   +24 01 34.25  .96497 1.3461  85.6 21.5 27.3  26
2026 07 31 10  02 27 23.792   +24 04 11.94  .96469 1.3460  85.6 21.5 27.6  26
2026 07 31 11  02 27 29.716   +24 06 49.69  .96442 1.3458  85.6 21.5 27.9  26
2026 07 31 12  02 27 35.643   +24 09 27.49  .96415 1.3457  85.6 21.5 28.2  26
2026 07 31 13  02 27 41.573   +24 12 05.35  .96387 1.3456  85.6 21.5 28.4  26
2026 07 31 14  02 27 47.506   +24 14 43.27  .96360 1.3454  85.6 21.5 28.7  26
2026 07 31 15  02 27 53.443   +24 17 21.24  .96333 1.3453  85.6 21.5 29.0  26